SB KEPS @ AMSAT $ORB12054.O Orbital Elements 12054.OSCAR
HR AMSAT ORBITAL ELEMENTS FOR OSCAR SATELLITES FROM WA5QGD FORT WORTH,TX February 23, 2012 Send SUBSCRIBE KEPS/UNSUBSCRIBE KEPS to majordomo@amsat.org only BID: ORB12054.O TO ALL RADIO AMATEURS BT
Satellite: AO-07 Catalog number: 07530 Epoch time: 12053.50705951 Element set: 0314 Inclination: 101.4006 deg RA of node: 055.2009 deg Eccentricity: 0.0011901 Arg of perigee: 148.3379 deg Mean anomaly: 211.8413 deg Mean motion: 12.53587723 rev/day Decay rate: -2.7e-07 rev/day^2 Epoch rev: 70555 Checksum: 259
Satellite: FO-29 Catalog number: 24278 Epoch time: 12054.85786280 Element set: 779 Inclination: 098.5737 deg RA of node: 170.5180 deg Eccentricity: 0.0350257 Arg of perigee: 325.4654 deg Mean anomaly: 032.4171 deg Mean motion: 13.52977088 rev/day Decay rate: 1.7e-07 rev/day^2 Epoch rev: 76649 Checksum: 344
Satellite: SO-33 Catalog number: 25509 Epoch time: 12054.81468340 Element set: 171 Inclination: 031.4344 deg RA of node: 260.8870 deg Eccentricity: 0.0353444 Arg of perigee: 282.5046 deg Mean anomaly: 073.6416 deg Mean motion: 14.28670735 rev/day Decay rate: 2.22e-06 rev/day^2 Epoch rev: 69628 Checksum: 299
Satellite: RS-22 Catalog number: 27939 Epoch time: 12054.58220596 Element set: 111 Inclination: 097.8205 deg RA of node: 261.2174 deg Eccentricity: 0.0012287 Arg of perigee: 269.0191 deg Mean anomaly: 090.9601 deg Mean motion: 14.63906581 rev/day Decay rate: 4.46e-06 rev/day^2 Epoch rev: 44911 Checksum: 299
Satellite: VO-52 Catalog number: 28650 Epoch time: 12054.67657163 Element set: 32 Inclination: 097.6106 deg RA of node: 091.1789 deg Eccentricity: 0.0027646 Arg of perigee: 058.3399 deg Mean anomaly: 302.0482 deg Mean motion: 14.82690509 rev/day Decay rate: 1.204e-05 rev/day^2 Epoch rev: 36800 Checksum: 308
Satellite: HO-68 Catalog number: 36122 Epoch time: 12054.74822682 Element set: 225 Inclination: 100.3778 deg RA of node: 116.3391 deg Eccentricity: 0.0007624 Arg of perigee: 012.8426 deg Mean anomaly: 347.2881 deg Mean motion: 13.16293173 rev/day Decay rate: -4.4e-07 rev/day^2 Epoch rev: 10533 Checksum: 281
/EX SB KEPS @ AMSAT $ORB12054.D Orbital Elements 12054.MICROS
HR AMSAT ORBITAL ELEMENTS FOR THE MICROSATS FROM WA5QGD FORT WORTH,TX February 23, 2012 Send SUBSCRIBE KEPS/UNSUBSCRIBE KEPS to majordomo@amsat.org only BID: ORB12054.D TO ALL RADIO AMATEURS BT
Satellite: UO-11 Catalog number: 14781 Epoch time: 12054.82474479 Element set: 796 Inclination: 097.9697 deg RA of node: 115.2762 deg Eccentricity: 0.0009921 Arg of perigee: 048.4787 deg Mean anomaly: 311.7277 deg Mean motion: 14.80318734 rev/day Decay rate: 5.19e-06 rev/day^2 Epoch rev: 50301 Checksum: 333
Satellite: AO-16 Catalog number: 20439 Epoch time: 12053.87079249 Element set: 0417 Inclination: 098.4175 deg RA of node: 000.5483 deg Eccentricity: 0.0011404 Arg of perigee: 136.9646 deg Mean anomaly: 223.2431 deg Mean motion: 14.32018879 rev/day Decay rate: 9.1e-07 rev/day^2 Epoch rev: 15349 Checksum: 296
Satellite: LO-19 Catalog number: 20442 Epoch time: 12053.91138617 Element set: 0328 Inclination: 098.3827 deg RA of node: 004.0036 deg Eccentricity: 0.0012580 Arg of perigee: 130.1522 deg Mean anomaly: 230.0768 deg Mean motion: 14.32239094 rev/day Decay rate: 1.7e-07 rev/day^2 Epoch rev: 15368 Checksum: 267
Satellite: AO-27 Catalog number: 22825 Epoch time: 12054.80081489 Element set: 39 Inclination: 098.5643 deg RA of node: 359.4669 deg Eccentricity: 0.0007647 Arg of perigee: 254.3123 deg Mean anomaly: 105.7250 deg Mean motion: 14.29431580 rev/day Decay rate: 1.08e-06 rev/day^2 Epoch rev: 96013 Checksum: 306
Satellite: IO-26 Catalog number: 22826 Epoch time: 12053.91368013 Element set: 0789 Inclination: 098.5564 deg RA of node: 358.9949 deg Eccentricity: 0.0008081 Arg of perigee: 251.5382 deg Mean anomaly: 108.4922 deg Mean motion: 14.29702133 rev/day Decay rate: 8.5e-07 rev/day^2 Epoch rev: 96013 Checksum: 322
Satellite: GO-32 Catalog number: 25397 Epoch time: 12054.59619161 Element set: 710 Inclination: 098.3512 deg RA of node: 039.0147 deg Eccentricity: 0.0000451 Arg of perigee: 218.9154 deg Mean anomaly: 141.1978 deg Mean motion: 14.23258138 rev/day Decay rate: -5.6e-07 rev/day^2 Epoch rev: 70772 Checksum: 295
Satellite: NO-44 Catalog number: 26931 Epoch time: 12052.92157605 Element set: 0976 Inclination: 067.0519 deg RA of node: 059.9864 deg Eccentricity: 0.0006382 Arg of perigee: 277.1004 deg Mean anomaly: 082.9368 deg Mean motion: 14.29761718 rev/day Decay rate: -5.5e-07 rev/day^2 Epoch rev: 54262 Checksum: 328
Satellite: SO-50 Catalog number: 27607 Epoch time: 12054.17480086 Element set: 695 Inclination: 064.5585 deg RA of node: 284.7278 deg Eccentricity: 0.0085204 Arg of perigee: 270.9684 deg Mean anomaly: 088.1655 deg Mean motion: 14.72223166 rev/day Decay rate: 4.62e-06 rev/day^2 Epoch rev: 49303 Checksum: 327
Satellite: CO-55 Catalog number: 27844 Epoch time: 12054.50089405 Element set: 316 Inclination: 098.7051 deg RA of node: 064.5427 deg Eccentricity: 0.0009373 Arg of perigee: 189.9245 deg Mean anomaly: 170.1751 deg Mean motion: 14.20964958 rev/day Decay rate: 1.98e-06 rev/day^2 Epoch rev: 44860 Checksum: 326
Satellite: CO-57 Catalog number: 27848 Epoch time: 12053.49881613 Element set: 0265 Inclination: 098.7130 deg RA of node: 062.8388 deg Eccentricity: 0.0009057 Arg of perigee: 196.8721 deg Mean anomaly: 163.2170 deg Mean motion: 14.20723838 rev/day Decay rate: 1.53e-06 rev/day^2 Epoch rev: 44840 Checksum: 320
Satellite: AO-51 Catalog number: 28375 Epoch time: 12054.78152809 Element set: 201 Inclination: 098.1312 deg RA of node: 025.4701 deg Eccentricity: 0.0084721 Arg of perigee: 027.8488 deg Mean anomaly: 332.7199 deg Mean motion: 14.40898154 rev/day Decay rate: 1.52e-06 rev/day^2 Epoch rev: 40229 Checksum: 301
Satellite: CP3 Catalog number: 31129 Epoch time: 12054.49250544 Element set: 99 Inclination: 097.8865 deg RA of node: 069.0197 deg Eccentricity: 0.0102404 Arg of perigee: 119.5675 deg Mean anomaly: 241.5780 deg Mean motion: 14.52896726 rev/day Decay rate: 5.04e-06 rev/day^2 Epoch rev: 25732 Checksum: 316
Satellite: CO-65 Catalog number: 32785 Epoch time: 12053.18023481 Element set: 0237 Inclination: 097.8158 deg RA of node: 116.9216 deg Eccentricity: 0.0015855 Arg of perigee: 081.3389 deg Mean anomaly: 278.9585 deg Mean motion: 14.82694771 rev/day Decay rate: 7.07e-06 rev/day^2 Epoch rev: 20657 Checksum: 343
Satellite: PRISM Catalog number: 33493 Epoch time: 12054.80555714 Element set: 452 Inclination: 098.1520 deg RA of node: 192.8160 deg Eccentricity: 0.0018188 Arg of perigee: 309.7915 deg Mean anomaly: 050.1700 deg Mean motion: 14.83229512 rev/day Decay rate: 2.158e-05 rev/day^2 Epoch rev: 16679 Checksum: 295
Satellite: SOHLA-1 Catalog number: 33496 Epoch time: 12054.88061250 Element set: 657 Inclination: 098.0922 deg RA of node: 167.4598 deg Eccentricity: 0.0007451 Arg of perigee: 049.2206 deg Mean anomaly: 310.9644 deg Mean motion: 14.69872258 rev/day Decay rate: 3.21e-06 rev/day^2 Epoch rev: 16545 Checksum: 312
Satellite: SO-67 Catalog number: 35870 Epoch time: 12054.81112396 Element set: 709 Inclination: 097.2479 deg RA of node: 094.5730 deg Eccentricity: 0.0001597 Arg of perigee: 165.3369 deg Mean anomaly: 247.2159 deg Mean motion: 15.22832943 rev/day Decay rate: 3.487e-05 rev/day^2 Epoch rev: 13520 Checksum: 327
Satellite: TISAT-1 Catalog number: 36799 Epoch time: 12054.81226880 Element set: 726 Inclination: 098.0722 deg RA of node: 130.3051 deg Eccentricity: 0.0015167 Arg of perigee: 178.3209 deg Mean anomaly: 181.8038 deg Mean motion: 14.81537759 rev/day Decay rate: 1.441e-05 rev/day^2 Epoch rev: 8755 Checksum: 311
Satellite: STUDSAT Catalog number: 36801 Epoch time: 12053.88739087 Element set: 342 Inclination: 098.0796 deg RA of node: 129.6475 deg Eccentricity: 0.0012935 Arg of perigee: 169.0517 deg Mean anomaly: 191.0968 deg Mean motion: 14.83161242 rev/day Decay rate: 4.192e-05 rev/day^2 Epoch rev: 8742 Checksum: 321
Satellite: FO-69 Catalog number: 37227 Epoch time: 12046.04422040 Element set: 0103 Inclination: 071.9672 deg RA of node: 223.6606 deg Eccentricity: 0.0017759 Arg of perigee: 195.0744 deg Mean anomaly: 164.9889 deg Mean motion: 14.76923927 rev/day Decay rate: 3.30e-06 rev/day^2 Epoch rev: 01791 Checksum: 314
Satellite: FO-70 Catalog number: 37380 Epoch time: 12046.50349291 Element set: 0106 Inclination: 071.9705 deg RA of node: 223.0530 deg Eccentricity: 0.0018152 Arg of perigee: 191.1227 deg Mean anomaly: 168.9536 deg Mean motion: 14.76682035 rev/day Decay rate: 3.31e-06 rev/day^2 Epoch rev: 01787 Checksum: 285
/EX SB KEPS @ AMSAT $ORB12054.W Orbital Elements 12054.WEATHER
HR AMSAT ORBITAL ELEMENTS FOR WEATHER SATELLITES FROM WA5QGD FORT WORTH,TX February 23, 2012 Send SUBSCRIBE KEPS/UNSUBSCRIBE KEPS to majordomo@amsat.org only BID: ORB12054.W TO ALL RADIO AMATEURS BT
Satellite: NOAA-10 Catalog number: 16969 Epoch time: 12054.28219727 Element set: 828 Inclination: 098.5942 deg RA of node: 085.3150 deg Eccentricity: 0.0011930 Arg of perigee: 207.5753 deg Mean anomaly: 152.4798 deg Mean motion: 14.27528554 rev/day Decay rate: -2.7e-07 rev/day^2 Epoch rev: 32347 Checksum: 321
Satellite: NOAA-11 Catalog number: 19531 Epoch time: 12054.30704080 Element set: 826 Inclination: 098.7361 deg RA of node: 141.8684 deg Eccentricity: 0.0010939 Arg of perigee: 188.1515 deg Mean anomaly: 171.9490 deg Mean motion: 14.14952705 rev/day Decay rate: -8.1e-07 rev/day^2 Epoch rev: 20826 Checksum: 296
Satellite: NOAA-12 Catalog number: 21263 Epoch time: 12054.56576998 Element set: 315 Inclination: 098.7379 deg RA of node: 076.7229 deg Eccentricity: 0.0013682 Arg of perigee: 170.4767 deg Mean anomaly: 189.6675 deg Mean motion: 14.25478987 rev/day Decay rate: 8.1e-07 rev/day^2 Epoch rev: 8022 Checksum: 350
